Location: Unspecified
(51.5147°N, 7.4673°E)
Time: 17:12:15
(UTC+01:00)

Vanguard 1 - Pass Details

Date: 23 February 2026
Orbit: 653 x 3818 km, 34.2° (Epoch: 5 March)

Event Time Altitude Azimuth Distance (km) Brightness Sun altitude
Rises 20:14:06 0° 269° (W) 5,893 15.4 -21.5°
Reaches altitude 10° 20:18:28 10° 257° (WSW) 5,331 14.7 -22.2°
Maximum altitude 20:30:56 26° 210° (SSW) 5,077 13.7 -24.1°
Drops below altitude 10° 20:47:02 10° 164° (SSE) 6,896 14.0 -26.5°
Enters shadow 20:53:11 - 155° (SSE) 7,799 14.3 -27.4°
